FW1981 Weather Reports


time (UTC)temp
C
wind
direction
speed
KPH
gust
KPH
rain 1hr
cm
rain 24hr
cm
rain mn
cm
humidity
%
barometer
mb
20260508143031 11 252 3.2 14.5 0.00 3.51 0.00 81 1003.3
20260508142524 11 259 3.2 12.9 0.00 3.51 0.00 79 1003.5
20260508142020 11 245 3.2 12.9 0.00 3.51 0.00 80 1003.4
20260508141534 10 243 1.6 12.9 0.00 3.51 0.00 80 1003.4
20260508141013 11 113 6.4 16.1 0.00 3.51 0.00 80 1003.4
20260508140523 11 245 4.8 16.1 0.00 3.51 0.00 78 1003.3
20260508140020 11 245 3.2 9.7 0.00 3.51 0.00 80 1003.3
20260508135513 10 160 3.2 8.0 0.00 3.78 0.00 83 1003.2
20260508135020 10 113 3.2 8.0 0.00 3.78 0.00 83 1003.2
20260508134532 10 136 3.2 6.4 0.00 3.78 0.00 84 1003.2
20260508134014 9 105 3.2 8.0 0.00 3.78 0.00 85 1003.2
20260508133520 9 105 6.4 8.0 0.00 3.78 0.00 82 1003.1
20260508133020 9 129 4.8 12.9 0.00 3.78 0.00 84 1003.1
20260508132513 9 114 8.0 12.9 0.00 3.78 0.00 82 1003.2
20260508132021 10 129 8.0 11.3 0.00 3.78 0.00 81 1003.2
20260508131520 11 127 6.4 11.3 0.00 3.78 0.00 80 1003.2
20260508131013 11 116 6.4 11.3 0.00 3.78 0.00 80 1003.2
20260508130521 11 89 4.8 8.0 0.00 3.78 0.00 81 1003.2
20260508130019 11 129 4.8 6.4 0.00 3.78 0.00 80 1003.2
20260508125514 11 146 3.2 4.8 0.00 3.96 0.00 81 1003.2
20260508125021 11 108 1.6 4.8 0.00 3.96 0.00 81 1003.1
20260508124519 11 134 3.2 4.8 0.00 3.96 0.00 81 1003.1
20260508124024 10 110 1.6 3.2 0.00 3.96 0.00 82 1003.2
20260508123531 10 115 1.6 6.4 0.00 3.96 0.00 82 1003.2
20260508123020 10 145 3.2 4.8 0.00 3.96 0.00 83 1003.3
20260508122513 10 52 3.2 4.8 0.00 3.96 0.00 81 1003.2
20260508122021 10 81 0.0 4.8 0.00 3.96 0.00 84 1003.2
20260508121520 9 120 1.6 6.4 0.00 3.96 0.00 83 1003.3
20260508121013 9 117 3.2 6.4 0.00 3.96 0.00 83 1003.4
20260508120520 9 101 4.8 6.4 0.00 3.96 0.00 83 1003.3
20260508120020 8 126 3.2 6.4 0.00 3.96 0.00 83 1003.3
20260508115513 9 105 3.2 6.4 0.00 4.01 0.00 83 1003.4
20260508115020 9 112 4.8 8.0 0.00 4.01 0.00 82 1003.4
20260508114520 8 109 3.2 9.7 0.00 4.01 0.00 83 1003.4
20260508114013 9 131 4.8 6.4 0.00 4.01 0.00 81 1003.4
20260508113532 9 65 1.6 3.2 0.00 4.01 0.00 82 1003.3
20260508113020 8 120 1.6 8.0 0.00 4.01 0.00 84 1003.4
20260508112524 8 110 4.8 8.0 0.00 4.01 0.00 83 1003.4
20260508112020 8 119 4.8 8.0 0.00 4.01 0.00 83 1003.5
20260508111520 8 106 4.8 8.0 0.00 4.01 0.00 83 1003.5
20260508111013 9 59 3.2 6.4 0.00 4.01 0.00 84 1003.6
20260508110521 9 81 3.2 9.7 0.00 4.01 0.00 83 1003.5
20260508110020 8 61 3.2 9.7 0.00 4.01 0.00 84 1003.5
20260508105513 8 11 3.2 11.3 0.00 4.04 0.00 85 1003.4
20260508105020 8 72 6.4 11.3 0.00 4.04 0.00 85 1003.5
20260508104521 8 80 3.2 6.4 0.00 4.04 0.00 86 1003.3
20260508104014 8 32 3.2 8.0 0.00 4.04 0.00 87 1003.1
20260508103521 7 71 3.2 8.0 0.00 4.04 0.00 86 1003.0
20260508103020 8 131 3.2 4.8 0.00 4.04 0.00 87 1002.9
20260508102513 7 110 1.6 3.2 0.00 4.04 0.00 87 1002.9
20260508102031 7 21 1.6 4.8 0.00 4.04 0.00 87 1002.9
20260508101523 7 77 3.2 4.8 0.00 4.04 0.00 88 1003.0
20260508101013 7 110 3.2 4.8 0.00 4.04 0.00 88 1003.0
20260508100521 6 46 0.0 1.6 0.00 4.04 0.00 90 1002.9
20260508100019 6 46 0.0 4.8 0.00 4.04 0.00 89 1002.8
20260508095513 6 347 0.0 4.8 0.00 4.14 0.00 89 1002.6
20260508095020 6 341 3.2 6.4 0.00 4.14 0.00 89 1002.4
20260508094520 6 16 3.2 6.4 0.00 4.14 0.00 90 1002.4
20260508094024 6 307 4.8 6.4 0.00 4.14 0.00 90 1002.6
20260508093521 6 302 3.2 4.8 0.00 4.14 0.00 90 1002.7
20260508093021 6 311 0.0 6.4 0.00 4.14 0.00 89 1002.5
20260508092513 6 46 1.6 6.4 0.00 4.14 0.00 89 1002.7
20260508092022 6 328 3.2 6.4 0.00 4.14 0.00 89 1002.7
20260508091520 6 309 3.2 4.8 0.00 4.14 0.00 90 1002.9
20260508091024 6 276 1.6 4.8 0.00 4.14 0.00 89 1002.8
20260508090520 6 125 3.2 6.4 0.00 4.14 0.00 89 1002.8
20260508090020 6 86 3.2 14.5 0.00 4.14 0.00 88 1002.7
20260508085519 6 17 4.8 16.1 0.00 4.17 0.00 88 1002.5
20260508085021 6 305 9.7 16.1 0.00 4.17 0.00 89 1002.4
20260508084520 6 308 9.7 16.1 0.00 4.17 0.00 89 1002.2
20260508084014 6 310 8.0 19.3 0.00 4.17 0.00 89 1002.2
20260508083532 6 310 9.7 20.9 0.00 4.17 0.00 88 1002.2
20260508083021 6 309 12.9 20.9 0.00 4.17 0.00 89 1002.4
20260508082513 6 305 9.7 17.7 0.00 4.17 0.00 89 1002.7
20260508082032 6 305 9.7 17.7 0.00 4.17 0.00 89 1002.4
20260508081519 6 335 9.7 17.7 0.00 4.17 0.00 89 1002.2
20260508081014 7 1 9.7 16.1 0.00 4.17 0.00 89 1002.7
20260508080521 6 308 8.0 12.9 0.00 4.17 0.00 89 1002.7
20260508080020 6 302 6.4 14.5 0.00 4.17 0.00 89 1002.7
20260508075513 6 331 8.0 14.5 0.00 4.17 0.00 89 1002.3
20260508075021 6 322 6.4 16.1 0.00 4.17 0.00 89 1002.7
20260508074524 6 23 8.0 16.1 0.00 4.17 0.00 89 1002.4
20260508074014 6 330 6.4 12.9 0.00 4.17 0.00 89 1002.4
20260508073533 6 331 6.4 11.3 0.00 4.17 0.00 89 1002.6
20260508073020 6 316 6.4 12.9 0.00 4.17 0.00 90 1002.8
20260508072514 6 349 6.4 14.5 0.00 4.17 0.00 90 1002.8
20260508072021 6 303 6.4 14.5 0.00 4.17 0.00 91 1002.7
20260508071519 6 297 6.4 11.3 0.00 4.17 0.00 90 1002.6
20260508071014 6 317 6.4 14.5 0.00 4.17 0.00 90 1002.3
20260508070522 7 308 8.0 14.5 0.00 4.17 0.00 90 1002.1
20260508070020 7 306 8.0 12.9 0.00 4.17 0.00 90 1002.3
20260508065525 7 284 6.4 11.3 0.00 4.17 0.00 90 1002.4
20260508065032 7 293 6.4 12.9 0.00 4.17 0.00 90 1002.4
20260508064521 7 323 8.0 12.9 0.00 4.17 0.00 90 1002.4
20260508064014 7 344 8.0 12.9 0.00 4.17 0.00 90 1002.4
20260508063521 7 332 8.0 12.9 0.00 4.17 0.00 91 1002.5
20260508063018 7 347 6.4 11.3 0.00 4.17 0.00 91 1002.6
20260508062514 7 339 6.4 11.3 0.00 4.17 0.00 91 1002.6
20260508062021 7 311 4.8 14.5 0.00 4.17 0.00 91 1002.6
20260508061519 7 298 6.4 14.5 0.00 4.17 0.00 91 1002.6
20260508061014 7 314 4.8 12.9 0.00 4.17 0.00 92 1002.8
20260508060521 7 319 6.4 11.3 0.00 4.17 0.00 92 1002.7
20260508060029 6 318 6.4 11.3 0.00 4.17 0.00 92 1002.8
20260508055514 6 316 4.8 8.0 0.00 4.17 0.00 92 1002.7
20260508055032 7 300 3.2 9.7 0.00 4.17 0.00 92 1002.9
20260508054520 7 326 6.4 9.7 0.00 4.17 0.00 92 1002.8
20260508054014 7 326 4.8 11.3 0.00 4.17 0.00 92 1002.9
20260508053521 7 341 4.8 11.3 0.00 4.17 0.00 92 1002.9
20260508053019 7 335 4.8 11.3 0.00 4.17 0.00 92 1002.8
20260508052514 7 327 6.4 12.9 0.00 4.17 0.00 92 1002.8
20260508052033 7 309 8.0 12.9 0.00 4.17 0.00 92 1002.8
20260508051519 7 311 6.4 11.3 0.00 4.17 0.00 92 1003.2
20260508051014 7 298 6.4 11.3 0.00 4.17 0.00 92 1003.0
20260508050533 7 319 4.8 11.3 0.00 4.17 0.00 92 1003.1
20260508050029 7 306 4.8 9.7 0.00 4.17 0.00 92 1003.1
20260508045515 7 309 4.8 9.7 0.00 4.17 0.00 92 1003.2
20260508045023 7 307 4.8 9.7 0.00 4.17 0.00 92 1003.1
20260508044523 7 282 4.8 9.7 0.00 4.17 0.00 93 1003.4
20260508044014 7 345 4.8 9.7 0.00 4.17 0.00 93 1003.2
20260508043533 7 316 4.8 11.3 0.00 4.17 0.00 93 1003.4
20260508043029 7 319 4.8 11.3 0.00 4.17 0.00 93 1003.4
20260508042514 7 287 3.2 11.3 0.00 4.17 0.00 94 1003.5
20260508042021 7 331 4.8 11.3 0.00 4.17 0.00 94 1003.4
20260508041519 7 311 4.8 11.3 0.00 4.17 0.00 94 1003.3
20260508041014 7 340 4.8 11.3 0.00 4.17 0.00 95 1003.3
20260508040526 7 304 4.8 9.7 0.00 4.17 0.00 95 1003.2
20260508040019 7 323 3.2 6.4 0.00 4.17 0.00 95 1003.1
20260508035514 7 319 3.2 6.4 0.00 4.17 0.00 95 1003.2
20260508035021 7 314 3.2 8.0 0.00 4.17 0.00 95 1003.2
20260508034529 7 328 3.2 8.0 0.00 4.17 0.00 95 1003.3
20260508034019 7 309 4.8 9.7 0.00 4.17 0.00 95 1003.3
20260508033521 7 315 4.8 9.7 0.00 4.17 0.00 95 1003.4
20260508033019 7 323 4.8 8.0 0.00 4.17 0.00 95 1003.5
20260508032525 7 292 3.2 8.0 0.00 4.17 0.00 95 1003.6
20260508032021 7 311 3.2 8.0 0.00 4.17 0.00 95 1003.5
20260508031519 6 290 1.6 4.8 0.00 4.17 0.00 95 1003.6
20260508031014 6 266 1.6 1.6 0.00 4.17 0.00 95 1003.6
20260508030522 6 264 1.6 3.2 0.00 4.17 0.00 95 1003.5
20260508030030 6 278 1.6 3.2 0.00 4.17 0.00 95 1003.5
20260508025514 6 278 1.6 3.2 0.00 4.17 4.17 95 1003.6
20260508025021 6 269 1.6 3.2 0.00 4.17 4.17 95 1003.6
20260508024518 6 274 0.0 1.6 0.00 4.17 4.17 95 1003.4
20260508024025 6 274 0.0 1.6 0.00 4.17 4.17 95 1003.7
20260508023522 6 274 1.6 1.6 0.00 4.17 4.17 95 1003.6
20260508023018 6 274 0.0 1.6 0.00 4.17 4.17 95 1003.6
20260508022514 6 274 0.0 1.6 0.00 4.17 4.17 95 1003.6
20260508022021 6 274 1.6 3.2 0.00 4.17 4.17 95 1003.5
20260508021524 6 274 1.6 1.6 0.00 4.17 4.17 95 1003.3
20260508021014 6 273 1.6 3.2 0.00 4.17 4.17 95 1003.4
20260508020521 6 275 1.6 3.2 0.00 4.17 4.17 95 1003.5
20260508020029 6 275 1.6 3.2 0.00 4.17 4.17 95 1003.5
20260508015515 6 276 1.6 3.2 0.00 4.17 4.17 95 1003.4
20260508015021 6 276 1.6 3.2 0.00 4.17 4.17 95 1003.5
20260508014518 6 271 1.6 3.2 0.00 4.17 4.17 95 1003.5
20260508014014 6 274 1.6 3.2 0.00 4.17 4.17 95 1003.6
20260508013522 6 266 1.6 3.2 0.00 4.17 4.17 95 1003.7
20260508013018 6 264 1.6 3.2 0.00 4.17 4.17 95 1003.7
20260508012514 6 276 1.6 1.6 0.00 4.17 4.17 95 1003.7
20260508012021 6 269 0.0 1.6 0.00 4.17 4.17 95 1003.7
20260508011519 6 269 0.0 1.6 0.00 4.17 4.17 95 1003.6
20260508011026 6 264 0.0 1.6 0.00 4.17 4.17 95 1003.8
20260508010522 6 263 1.6 1.6 0.00 4.17 4.17 95 1003.9
20260508010018 6 250 0.0 1.6 0.00 4.17 4.17 95 1003.9
20260508005514 6 243 1.6 1.6 0.00 4.17 4.17 95 1003.7
20260508005021 6 233 1.6 1.6 0.00 4.17 4.17 95 1003.8
20260508004518 6 233 0.0 1.6 0.00 4.17 4.17 95 1003.9
20260508004015 6 233 0.0 4.8 0.00 4.17 4.17 95 1003.8
20260508002025 6 224 1.6 3.2 0.00 4.17 4.17 95 1003.4
20260508001022 6 328 0.0 0.0 0.00 4.17 4.17 95 1003.3
20260508000520 6 328 0.0 0.0 0.00 4.17 4.17 95 1003.0
20260508000025 6 328 0.0 1.6 0.00 4.17 4.17 95 1003.0
20260507235523 6 328 0.0 1.6 0.00 4.17 4.17 95 1003.1
20260507235022 6 328 0.0 0.0 0.00 4.17 4.17 95 1003.0
20260507234518 6 329 0.0 1.6 0.00 4.17 4.17 95 1002.9
20260507234015 6 329 0.0 1.6 0.00 4.17 4.17 95 1002.9
20260507230522 6 261 1.6 4.8 0.00 4.17 4.17 94 1002.9
20260507230019 6 282 1.6 4.8 0.00 4.17 4.17 94 1002.8
20260507225515 6 290 0.0 6.4 0.00 4.17 4.17 94 1002.9
20260507225034 6 212 3.2 6.4 0.00 4.17 4.17 94 1003.0
20260507224521 6 231 0.0 8.0 0.00 4.17 4.17 94 1003.0
20260507224015 6 271 1.6 8.0 0.00 4.17 4.17 94 1003.1
20260507223524 6 226 1.6 8.0 0.00 4.17 4.17 94 1003.0
20260507223019 6 236 3.2 8.0 0.00 4.17 4.17 94 1003.0
20260507222515 6 263 1.6 9.7 0.00 4.17 4.17 94 1002.9
20260507221526 6 252 3.2 9.7 0.00 4.17 4.17 94 1003.0
20260507221023 6 205 3.2 12.9 0.00 4.17 4.17 94 1003.2
20260507220528 6 296 3.2 8.0 0.00 4.17 4.17 94 1002.9
20260507220019 6 285 3.2 9.7 0.00 4.17 4.17 94 1003.0
20260507215516 6 245 1.6 9.7 0.00 4.17 4.17 94 1003.1
20260507214535 6 251 1.6 9.7 0.00 4.17 4.17 95 1003.0
20260507214022 6 156 3.2 9.7 0.00 4.17 4.17 94 1003.0
20260507213519 6 228 4.8 9.7 0.00 4.17 4.17 94 1003.0
20260507213027 6 286 3.2 8.0 0.00 4.17 4.17 94 1003.1
20260507210526 6 269 1.6 11.3 0.00 4.17 4.17 94 1003.4
20260507205523 6 250 3.2 9.7 0.00 4.17 4.17 94 1003.4
20260507205020 6 233 1.6 9.7 0.00 4.17 4.17 94 1003.3
20260507204515 6 292 3.2 9.7 0.00 4.17 4.17 94 1003.1
20260507204033 6 245 3.2 9.7 0.00 4.17 4.17 94 1003.1
20260507203520 7 249 3.2 11.3 0.00 4.17 4.17 94 1003.2
20260507203027 7 110 3.2 12.9 0.00 4.17 4.17 94 1003.2
20260507201517 7 297 3.2 19.3 0.00 4.17 4.17 94 1003.4
20260507201035 7 250 6.4 19.3 0.00 4.17 4.17 94 1003.5
20260507200522 7 217 4.8 12.9 0.00 4.17 4.17 94 1003.6
20260507200015 7 248 4.8 12.9 0.00 4.17 4.17 94 1003.7
20260507193515 7 142 4.8 19.3 0.05 4.17 4.17 94 1003.4
20260507192526 7 223 6.4 17.7 0.08 4.17 4.17 94 1003.6
20260507191519 8 282 1.6 14.5 0.10 4.17 4.17 94 1003.3
20260507191016 8 239 4.8 17.7 0.10 4.17 4.17 95 1003.3
20260507190015 8 127 3.2 14.5 0.10 4.14 4.14 94 1002.2
20260507184019 8 98 9.7 16.1 0.33 4.11 4.11 94 1002.1
20260507183543 8 191 8.0 14.5 0.38 4.11 4.11 95 1003.1
20260507180524 8 269 3.2 8.0 0.69 4.04 4.04 95 1004.6
20260507180030 8 231 3.2 9.7 0.71 4.01 4.01 95 1004.7
20260507175515 8 234 4.8 11.3 0.74 3.99 3.99 95 1004.3
20260507174515 8 248 3.2 8.0 0.71 3.86 3.86 95 1005.5
20260507171020 8 231 3.2 8.0 1.04 3.40 3.40 94 1005.7
20260507170516 8 243 3.2 8.0 1.35 3.33 3.33 95 1005.5
20260507165518 8 251 3.2 9.7 1.85 3.25 3.25 95 1005.2
20260507165016 8 229 4.8 9.7 2.01 3.20 3.20 95 1005.3
20260507164522 8 230 3.2 9.7 2.08 3.15 3.15 95 1005.3
20260507164022 8 231 4.8 9.7 2.06 3.10 3.10 95 1005.6
20260507163518 8 297 3.2 6.4 1.96 2.97 2.97 94 1006.0
20260507163015 8 157 3.2 9.7 1.93 2.95 2.95 94 1006.1
20260507162524 8 321 1.6 16.1 1.91 2.92 2.92 94 1006.1
20260507162023 8 347 3.2 16.1 1.83 2.82 2.82 94 1006.3
20260507161519 8 314 4.8 16.1 1.63 2.59 2.59 95 1006.1
20260507161016 8 283 3.2 14.5 1.37 2.31 2.31 94 1005.8
20260507160021 8 266 4.8 16.1 0.81 1.68 1.68 94 1005.6
20260507153534 9 152 8.0 19.3 0.25 1.02 1.02 94 1005.2
20260507153019 9 258 9.7 19.3 0.28 1.02 1.02 94 1005.3
20260507152515 9 219 9.7 24.1 0.28 1.02 1.02 94 1005.5
20260507151515 9 169 9.7 29.0 0.25 0.97 0.97 94 1005.8
20260507151023 9 238 11.3 29.0 0.25 0.94 0.94 95 1005.9
20260507150520 9 143 9.7 24.1 0.23 0.89 0.89 95 1006.1
20260507150026 8 179 8.0 24.1 0.20 0.86 0.86 95 1006.3
20260507145523 8 30 8.0 22.5 0.18 0.84 0.84 95 1006.2
20260507145020 8 192 9.7 24.1 0.18 0.81 0.81 94 1006.3
20260507144516 8 148 11.3 25.7 0.23 0.81 0.81 94 1006.4
20260507144023 8 167 9.7 30.6 0.23 0.79 0.79 94 1006.4
20260507143522 8 190 11.3 30.6 0.25 0.76 0.76 94 1006.5